sat.trackr.live / text

‹ back to catalog

STARLINK-4259

NORAD 52987 · 2022-076B

PAYLOAD ACTIVE UNKNOWN

§ Identity

Operator
Country
US
Launch date
2022-07-07
Launch site
AFETR
Launch vehicle
Mass (kg)
RCS (m²)

Purposes: comms

External: N2YO · Heavens-Above · Gunter

§ Orbital elements

Epoch: 2026-09-19T17:14:43.504512Z

Period
94.01 min
Inclination
53.1598°
Eccentricity
0.0001105
Mean motion
15.31707328 rev/d
Perigee alt
470.0 km
Apogee alt
471.5 km
Semi-major
6,848.9 km
B*
4.2877e-5
RAAN
301.4042°
Arg perigee
77.6336°
Mean anomaly
282.4789°
Rev number
23,215

§ Raw data

STARLINK-42591 52987U 22076B   26262.71855908  .00000966  00000+0  42877-4 0  99912 52987  53.1598 301.4042 0001105  77.6336 282.4789 15.31707328232157

JSON: /api/v1/satellites/52987 · /tle

For live sub-satellite position, see the globe view (requires WebGL).

§ Visibility from observer

Set your observer location to see the next 7 days of passes ≥ 10°. The values pass through the URL so the page stays shareable.

No JS? Fill the form by hand. The geolocation button needs JavaScript.